Regional Weather Roundup
Issued by NWS

Home | Current Version | Previous Version | Graphics & Text | Print | Product List | Glossary On
Versions: 1 2 3 4 5 6 7 8 9 10 11 12 13 14 15 16 17 18 19 20 21 22 23 24 25 26 27 28 29 30 31 32 33 34 35 36 37 38 39 40 41 42 43 44 45 46 47 48 49 50
000
ASUS43 KMKX 210600
RWRWI

WISCONSIN REGIONAL WEATHER ROUNDUP
NATIONAL WEATHER SERVICE MILWAUKEE/SULLIVAN WI
1200 AM CST TUE NOV 21 2017

NOTE: "FAIR" INDICATES FEW OR NO CLOUDS BELOW 12,000 FEET WITH NO
SIGNIFICANT WEATHER AND/OR OBSTRUCTIONS TO VISIBILITY.

WIZ001-002-006>008-014>016-023>028-210700-
NORTHWEST WISCONSIN

CITY           SKY/WX    TMP DP  RH WIND       PRES   REMARKS
SUPERIOR ARPT  CLOUDY    39  28  63 W24       29.37R WCI  28
6HR MIN TEMP:  33; 6HR MAX TEMP:  40;

ASHLAND        PTCLDY    37  27  67 SW13      29.33R WCI  29
6HR MIN TEMP:  37; 6HR MAX TEMP:  42;

HAYWARD        CLOUDY    40  27  59 W9G20     29.37R WCI  34
6HR MIN TEMP:  38; 6HR MAX TEMP:  42;

SIREN          CLOUDY    39  28  63 W15       29.43R WCI  31
CUMBERLAND     PTCLDY    37  27  65 W17       29.43S WCI  28
RICE LAKE      PTCLDY    39  28  64 W12G17    29.45R WCI  32
CHETEK         PTCLDY    41  28  60 W10G22    29.44R
LADYSMITH      CLOUDY    40  29  64 SW10      29.42S WCI  33
EAU CLAIRE     NOT AVBL
MENOMONIE      CLEAR     42  27  55 W13G18    29.47R
NEW RICHMOND   CLOUDY    40  27  58 W13G20    29.48R WCI  33
OSCEOLA        PTCLDY    41  29  62 W13G18    29.51R
$$

WIZ003>005-009-010-017-018-210700-
NORTH CENTRAL WISCONSIN

CITY           SKY/WX    TMP DP  RH WIND       PRES   REMARKS
MANITOWISH WTR PTCLDY    36  30  77 SW10      29.31S WCI  29
ARBOR VITAE    CLOUDY    39  29  68 W8G26     29.32F WCI  34
WOODRUFF       CLOUDY    39  29  68 W8G26     29.32F WCI  34
RHINELANDER    CLOUDY    38  29  70 W10       29.35S WCI  31
6HR MIN TEMP:  38; 6HR MAX TEMP:  41;

EAGLE RIVER    CLOUDY    37  28  69 W10       29.31S WCI  30
LAND O LAKES   CLOUDY    39  29  67 SW8       29.31S WCI  33
PHILLIPS       CLOUDY    37  29  72 SW7       29.36S WCI  31
TOMAHAWK       CLOUDY    39  27  62 SW6       29.37F
MEDFORD        CLOUDY    37  28  68 W9        29.40F WCI  31
MERRILL        CLOUDY    40  29  66 SW12      29.40S WCI  33
$$

WIZ029-030-035-036-043>047-210700-
CENTRAL WISCONSIN

CITY           SKY/WX    TMP DP  RH WIND       PRES   REMARKS
WAUSAU         CLEAR     41  28  60 SW12      29.41S
6HR MIN TEMP:  41; 6HR MAX TEMP:  44;

MOSINEE        CLEAR     41  30  65 SW13G18   29.44R
MARSHFIELD     CLEAR     40  27  59 SW12      29.43F WCI  33
6HR MIN TEMP:  40; 6HR MAX TEMP:  46;

STEVENS POINT  CLEAR     43  27  53 SW12G17   29.45S
WAUPACA        CLEAR     49  29  46 SW14G22   29.46R
WAUTOMA        CLEAR     47  29  49 SW10      29.48
6HR MIN TEMP:  45; 6HR MAX TEMP:  50;

WISC RAPIDS    CLEAR     45  28  51 W10       29.47F
6HR MIN TEMP:  45; 6HR MAX TEMP:  48;

CAMP DOUGLAS   PTCLDY   N/A N/A N/A W12       29.51S
$$

WIZ011>013-019>022-031-037>040-048>050-210700-
NORTHEAST WISCONSIN

CITY           SKY/WX    TMP DP  RH WIND       PRES   REMARKS
ANTIGO         CLEAR     39  29  68 SW16      29.38F WCI  30
SHAWANO        CLEAR     47  31  53 SW10      29.41R
OCONTO         CLEAR     45  31  57 SW10      29.41R
STURGEON BAY   CLEAR     47  33  58 SW18G24   29.41R
6HR MIN TEMP:  42; 6HR MAX TEMP:  50;

GREEN BAY      CLEAR     44  34  67 SW10      29.44R
6HR MIN TEMP:  43; 6HR MAX TEMP:  47;

MANITOWOC      CLEAR     50  31  48 SW21G32   29.46
6HR MIN TEMP:  41; 6HR MAX TEMP:  52;

APPLETON       CLEAR     45  28  53 SW15      29.43F
CLINTONVILLE   CLEAR     46  28  49 W13G18    29.43R
OSHKOSH        CLEAR     45  32  60 SW14      29.47S
6HR MIN TEMP:  45; 6HR MAX TEMP:  48;

$$

WIZ032>034-041-042-053>061-210700-
SOUTHWEST WISCONSIN

CITY           SKY/WX    TMP DP  RH WIND       PRES   REMARKS
LA CROSSE      CLEAR     46  29  51 SW6       29.54R
6HR MIN TEMP:  44; 6HR MAX TEMP:  54;

SPARTA         PTCLDY    45  30  55 CALM      29.53S
VIROQUA        CLEAR     43  32  63 SW8       29.54F
BOSCOBEL       CLEAR     47  30  51 SW7       29.57F
6HR MIN TEMP:  45; 6HR MAX TEMP:  54;

PRAIRIE DU CHI PTCLDY    47  29  48 W6        29.58S
PLATTEVILLE    PTCLDY    45  33  62 SW13      29.60S
$$

WIZ056-057-062-063-064-067-068-210700-
SOUTH CENTRAL WISCONSIN

CITY           SKY/WX    TMP DP  RH WIND       PRES   REMARKS
REEDSBURG      CLEAR     47  30  52 W7G18     29.53R
BARABOO/DELLS  CLEAR     46  29  51 SW13G20   29.52S
LONE ROCK      CLEAR     46  32  58 W10       29.56F
6HR MIN TEMP:  46; 6HR MAX TEMP:  53;

MINERAL POINT  CLOUDY    46  32  57 SW14      29.57F
MADISON        CLEAR     47  31  53 SW12G23   29.55S
6HR MIN TEMP:  47; 6HR MAX TEMP:  50;

MIDDLETON      CLEAR     48  31  51 SW15G21   29.55F
WATERTOWN      CLEAR     46  32  59 SW16G24   29.55S
MONROE         PTCLDY    45  32  61 SW21      29.59S
JANESVILLE     PTCLDY    46  32  57 SW16G24   29.60S
$$

WIZ051-052-058>065-066-070>072-210700-
SOUTHEAST WISCONSIN

CITY           SKY/WX    TMP DP  RH WIND       PRES   REMARKS
MILWAUKEE      MOCLDY    46  32  58 SW25G33   29.58F
6HR MIN TEMP:  46; 6HR MAX TEMP:  51;

WAUKESHA       CLEAR     43  30  61 SW15G21   29.58S
MILWAUKEE/TIMM CLOUDY    45  28  53 SW21G28   29.57S
RACINE         CLOUDY    47  31  53 SW18G31   29.60F
6HR MIN TEMP:  46; 6HR MAX TEMP:  50;

BURLINGTON     MOCLDY    45  36  71 SW20      29.60S
KENOSHA        PTCLDY    47  30  51 SW16G25   29.61S
6HR MIN TEMP:  46; 6HR MAX TEMP:  50;

FOND DU LAC    CLEAR     46  31  55 SW16G24   29.49F
6HR MIN TEMP:  45; 6HR MAX TEMP:  50;

SHEBOYGAN      CLOUDY    49  32  52 SW22G32   29.49F
6HR MIN TEMP:  46; 6HR MAX TEMP:  50; 6HR PCP: TRACE;

WEST BEND      CLEAR     45  30  57 SW16      29.53S
JUNEAU         CLEAR     44  32  63 SW17      29.54F
$$

LSZ147-162-210700-
LAKE SUPERIOR

STATION/POSITION TIME  TEMP    WIND        PRES    WAVE
                       AIR SEA DIR/SP/G            HT/PER
                 (UTC) (F)     (DEG/KT/KT) (MB)    (FT/S)
DEVILS ISLAND    0500   42     240/ 24/ 29  991.0R
SAXON HARBOR     0540   43     230/  7/ 15  992.6R
$$

LMZ867-665-643>646-210700-
LAKE MICHIGAN

STATION/POSITION TIME  TEMP    WIND        PRES    WAVE
                       AIR SEA DIR/SP/G            HT/PER
                 (UTC) (F)     (DEG/KT/KT) (MB)    (FT/S)
N MID LAKE BUOY  0450   49 48  200/ 29/ 35  994.7F  10/ 8
NORTHPORT PIER   0540   50     220/ 11/ 24  994.9R
KEWAUNEE LAKESHO 0530   50     220/ 12/ 24  996.4F
SHEBOYGAN LAKESH 0500   50     220/ 16/ 18  999.2F
PORT WASHINGTON  0530   48     240/ 11/ 18 1001.4S
MILWAUKEE LAKESH 0530   47     230/ 19/ 23   N/A
S MID LAKE BUOY  0450   47 48  220/ 29/ 37 1003.7F   9/ 7
KENOSHA   LAKESH 0500   47     220/ 14/ 25 1003.4
$$

TC  - TEMPERATURE IN CELSIUS
VSB - VISIBILITY IN STATUTE MILES
WCI - WIND CHILL INDEX
HX  - HEAT INDEX




USA.gov is the U.S. government's official web portal to all federal, state and local government web resources and services.